TimeGMT,TemperatureF,Dew PointF,Humidity,Sea Level PressureIn,VisibilityMPH,Wind Direction,Wind SpeedMPH,Gust SpeedMPH,PrecipitationIn,Events,Conditions,WindDirDegrees,DateUTC
7:50 AM,42.8,35.6,76,30.04,6.2,North,16.1,-,N/A,,Scattered Clouds,10,2012-11-27 07:50:00
8:20 AM,42.8,35.6,76,30.04,6.2,North,16.1,-,N/A,,Scattered Clouds,10,2012-11-27 08:20:00
8:50 AM,42.8,37.4,81,30.06,6.2,North,12.7,-,N/A,,Scattered Clouds,10,2012-11-27 08:50:00
9:20 AM,42.8,37.4,81,30.06,6.2,NNE,11.5,-,N/A,,Scattered Clouds,20,2012-11-27 09:20:00
9:50 AM,44.6,37.4,76,30.06,6.2,NNE,12.7,-,N/A,,Scattered Clouds,20,2012-11-27 09:50:00
10:20 AM,44.6,35.6,71,30.09,6.2,NNE,16.1,-,N/A,,Scattered Clouds,20,2012-11-27 10:20:00
10:50 AM,44.6,37.4,76,30.09,6.2,NNE,16.1,-,N/A,,Scattered Clouds,20,2012-11-27 10:50:00
11:20 AM,46.4,37.4,71,30.09,6.2,NNE,16.1,-,N/A,,Scattered Clouds,20,2012-11-27 11:20:00
11:50 AM,46.4,37.4,71,30.09,6.2,NNE,17.3,-,N/A,,Scattered Clouds,20,2012-11-27 11:50:00
12:20 PM,48.2,39.2,71,30.09,6.2,NNE,16.1,-,N/A,,Scattered Clouds,30,2012-11-27 12:20:00
12:50 PM,48.2,39.2,71,30.09,6.2,North,16.1,-,N/A,,Scattered Clouds,10,2012-11-27 12:50:00
1:20 PM,46.4,39.2,76,30.09,6.2,NNE,16.1,-,N/A,,Mostly Cloudy,20,2012-11-27 13:20:00
1:50 PM,44.6,39.2,81,30.09,6.2,North,20.7,-,N/A,,Mostly Cloudy,350,2012-11-27 13:50:00
2:20 PM,44.6,39.2,81,30.09,6.2,North,11.5,-,N/A,,Scattered Clouds,10,2012-11-27 14:20:00
2:50 PM,44.6,39.2,81,30.09,6.2,North,10.4,-,N/A,,Scattered Clouds,360,2012-11-27 14:50:00
3:20 PM,44.6,37.4,76,30.09,6.2,North,17.3,-,N/A,,Scattered Clouds,10,2012-11-27 15:20:00
3:50 PM,44.6,39.2,81,30.09,6.2,North,11.5,-,N/A,,Scattered Clouds,360,2012-11-27 15:50:00
4:20 PM,44.6,39.2,81,30.09,6.2,North,9.2,-,N/A,,Scattered Clouds,360,2012-11-27 16:20:00
4:50 PM,42.8,37.4,81,30.12,6.2,North,15.0,-,N/A,,Scattered Clouds,360,2012-11-27 16:50:00
5:20 PM,41.0,35.6,81,30.12,6.2,NNW,9.2,-,N/A,,Scattered Clouds,340,2012-11-27 17:20:00
5:50 PM,42.8,37.4,81,30.12,6.2,NNW,8.1,-,N/A,,Scattered Clouds,330,2012-11-27 17:50:00
6:20 PM,41.0,35.6,81,30.12,6.2,NNW,4.6,-,N/A,,Scattered Clouds,330,2012-11-27 18:20:00